Hourly Data Report for May 26, 2012

All times are specified in Local Standard Time (LST). Add 1 hour to adjust for Daylight Saving Time where and when it is observed.

PENTICTON A
BRITISH COLUMBIA

49°27'45.000" N
119°36'08.000" W
344.40 m
1126146
71889
YYF

Download Data

Hourly Data (May 2012)
Hourly Data Report for May 26, 2012
Temp Definition
°C
Dew Point Temp Definition
°C
Rel Hum Definition
%
Wind Dir Definition
10's deg

Wind Spd Definition
km/h
Visibility Definition
km
Stn Press Definition
kPa
Hmdx Definition


Wind Chill Definition


Weather Definition


TIME
00:00 Legend Double Dagger 9.6 0.8 54 23 6 10.0 97.34     LegendNANA
01:00 Legend Double Dagger 6.8 0.3 63   0 10.0 97.37     Mainly Clear
02:00 Legend Double Dagger 7.6 -0.4 57 34 13 10.0 97.39     LegendNANA
03:00 Legend Double Dagger 7.6 -0.4 57 LegendMM LegendMM 10.0 97.40     LegendNANA
04:00 Legend Double Dagger 5.8 -0.7 63 34 14 10.0 97.43     Clear
05:00 Legend Double Dagger 7.0 0.5 63 1 14 10.0 97.45     LegendNANA
06:00 Legend Double Dagger 10.9 2.5 56 33 13 10.0 97.45     LegendNANA
07:00 Legend Double Dagger 12.7 1.7 47 35 15 10.0 97.42     Clear
08:00 Legend Double Dagger 14.2 1.2 41 34 19 10.0 97.35     LegendNANA
09:00 Legend Double Dagger 15.1 1.3 39 35 16 10.0 97.28     LegendNANA
10:00 Legend Double Dagger 17.2 1.3 34 35 13 10.0 97.18     Mainly Clear
11:00 Legend Double Dagger 19.6 1.7 30 3 8 10.0 97.10     LegendNANA
12:00 Legend Double Dagger 21.1 1.5 27 8 7 10.0 96.99     LegendNANA
13:00 Legend Double Dagger 23.3 0.6 22 1 23 10.0 96.91     Mainly Clear
14:00 Legend Double Dagger 24.1 -1.5 18 1 20 10.0 96.84     LegendNANA
15:00 Legend Double Dagger 23.8 -1.0 19 35 14 10.0 96.80     LegendNANA
16:00 Legend Double Dagger 25.0 0.0 19 0 15 10.0 96.75     Mainly Clear
17:00 Legend Double Dagger 24.3 -1.3 18 0 10 10.0 96.73     LegendNANA
18:00 Legend Double Dagger 23.7 -1.8 18 27 6 10.0 96.72     LegendNANA
19:00 Legend Double Dagger 20.8 0.8 26   0 10.0 96.72     Mainly Clear
20:00 Legend Double Dagger 17.2 1.3 34 23 8 10.0 96.77     LegendNANA
21:00 Legend Double Dagger 11.5 2.8 55 5 9 10.0 96.82     LegendNANA
22:00 Legend Double Dagger 13.0 1.7 46 5 5 10.0 96.86     Mainly Clear
23:00 Legend Double Dagger 14.7 2.3 43 15 11 10.0 96.88     LegendNANA

Notes on Data Quality.

Legend

  • E = Estimated
  • M = Missing
  • NA = Not Available
  • ‡ = Partner data that is not subject to review by the National Climate Archives
Date modified: